Weather History for Ozark, AL

Change the Weather History Date:

Wednesday, November 21, 2012

  Actual Average Record
Temperature  
Mean Temperature 60 °F -  
Max Temperature 73 °F 65 °F 82 °F (2011)
Min Temperature 47 °F 44 °F 28 °F (2000)
Degree Days  
Heating Degree Days 4    
Growing Degree Days 10 (Base 50)    
Moisture  
Dew Point 47 °F    
Average Humidity 69    
Maximum Humidity 92    
Minimum Humidity 37    
Precipitation  
Precipitation 0.00 in - - ()
Sea Level Pressure  
Sea Level Pressure 30.13 in    
Wind  
Wind Speed 5 mph (NW)    
Max Wind Speed 13 mph    
Max Gust Speed 17 mph    
Visibility 10 miles    
Events      
Averages and records for this station are not official NWS values.
T = Trace of Precipitation, MM = Missing Value Source: NWS Daily Summary

Daily Weather History Graph

Daily Weather History Graph

Search for Another Location

Airport:

Trip Planner

Search our weather history database for the weather conditions in past years. The results will help you decide how hot, cold, wet, or windy it might be!

Date:

Astronomy

Nov. 21, 2012 Rise Set
Actual Time 6:15 AM CST 4:41 PM CST
Civil Twilight 5:49 AM CST 5:07 PM CST
Nautical Twilight 5:20 AM CST 5:37 PM CST
Astronomical Twilight 4:51 AM CST 6:06 PM CST
Moon 12:36 PM CST (11/21) No Moon Set
Length of Visible Light 11h 17m
Length of Day
10h 25m
First Quarter, 62% of the Moon is Illuminated
Nov 21
First Quarter
Nov 28
Full
Dec 6
Last Quarter
Dec 13
New
Dec 19
First Quarter

Hourly Weather History & Observations

Time (CST) Temp. Dew Point Humidity Pressure Visibility Wind Dir Wind Speed Gust Speed Precip Events Conditions
12:55 AM 52.3 °F 48.9 °F 88% 30.11 in 10.0 mi NW 6.9 mph - N/A   Clear
1:55 AM 51.6 °F 48.0 °F 87% 30.11 in 10.0 mi NW 5.8 mph - N/A   Clear
2:55 AM 50.5 °F 47.5 °F 89% 30.11 in 10.0 mi NW 5.8 mph - N/A   Clear
3:55 AM 49.6 °F 46.6 °F 89% 30.12 in 10.0 mi NW 4.6 mph - N/A   Clear
4:55 AM 49.5 °F 46.0 °F 88% 30.12 in 10.0 mi NW 4.6 mph - N/A   Clear
5:55 AM 48.6 °F 45.5 °F 89% 30.13 in 10.0 mi NW 3.5 mph - N/A   Clear
6:55 AM 50.2 °F 46.2 °F 86% 30.15 in 10.0 mi Calm Calm - N/A   Clear
7:55 AM 54.3 °F 48.0 °F 79% 30.16 in 10.0 mi NW 4.6 mph - N/A   Clear
8:55 AM 59.4 °F 48.2 °F 67% 30.17 in 10.0 mi NNW 5.8 mph - N/A   Clear
9:55 AM 64.8 °F 49.6 °F 58% 30.17 in 10.0 mi Calm Calm - N/A   Clear
10:55 AM 70.2 °F 48.7 °F 46% 30.15 in 10.0 mi NNW 9.2 mph - N/A   Clear
11:55 AM 72.0 °F 48.6 °F 43% 30.12 in 10.0 mi NNW 9.2 mph - N/A   Clear
12:55 PM 73.4 °F 48.6 °F 41% 30.10 in 10.0 mi NNW 6.9 mph - N/A   Scattered Clouds
1:55 PM 72.9 °F 46.2 °F 39% 30.09 in 10.0 mi North 10.4 mph - N/A   Partly Cloudy
2:55 PM 73.2 °F 45.1 °F 37% 30.09 in 10.0 mi North 12.7 mph 17.3 mph N/A   Partly Cloudy
3:55 PM 71.2 °F 45.0 °F 39% 30.10 in 10.0 mi NNW 8.1 mph - N/A   Clear
4:55 PM 66.9 °F 45.7 °F 46% 30.11 in 10.0 mi NNW 4.6 mph - N/A   Clear
5:55 PM 61.9 °F 46.4 °F 57% 30.12 in 10.0 mi NW 4.6 mph - N/A   Clear
6:55 PM 57.2 °F 48.0 °F 71% 30.14 in 10.0 mi NW 4.6 mph - N/A   Clear
7:55 PM 53.8 °F 46.6 °F 77% 30.15 in 10.0 mi Calm Calm - N/A   Clear
8:55 PM 54.7 °F 46.6 °F 74% 30.16 in 10.0 mi Calm Calm - N/A   Clear
9:55 PM 49.8 °F 45.9 °F 86% 30.16 in 10.0 mi WNW 3.5 mph - N/A   Clear
10:55 PM 48.9 °F 45.9 °F 89% 30.16 in 10.0 mi Calm Calm - N/A   Clear
11:55 PM 47.3 °F 45.0 °F 92% 30.16 in 10.0 mi Calm Calm - N/A   Clear